Погода Сенно

Погода Сенно : погода сейчас, прогноз погоды и архив. Всё, что Вы хотите узнать о погоде Сенно!

Хотите узнать прогноз погоды Сенно? Тогда Вам сюда: Погода Сенно

Поиск расширенной информации на нашем сайте:

Другие новости

Новости СМИ2

Главная страница сайта

Новости сайта

03.07.2017

Напоминаем, что на нашем специализированном сайте Метеоцентр.Азия вы можете получить высокодетализированные автоматические прогнозы погоды по пунктам России, СНГ и мира в авиационном формате (включающие направление и скорость ветра, видимость, явления погоды, количество и форму облачности, нижнюю и верхнюю границу облачности).


Погода Сенно - сегодня

Время (UTC), дата Ветер
(°,м/с) 
Видим.   Явления Облачность Т
(°С)
Тd
(°С)
f(%) Тe
(°С)
Pmin
(гПа)
dP
(гПа)
Po
(мм)
O2
(г/м3)
Тmin Tmax R s Состояние
почвы
06 05.08.18 270 (З) 28000 м    8/0 средняя 
[Ac und]
+20.6 +16.7 78 +33  1010.5  0.3  743  275  +17         
18 05.08.18 тихо ()   30000 м  в посл. час ливневой дождь{гроза}  9/3 600 м кучево-дожд., средняя, верхняя 
[Cb calv|Ac trans|Ci fib]
+18 +16.5 91 +30  1009.4  0.6  742  277    +27.5     
06 06.08.18 280 (З) 35000 м    6/0 верхняя 
[Ci fib]
+18.8 +15.6 82 +30  1011.5  0.9  743  277  +15.9         
18 06.08.18 240 (ЮЗ) 35000 м    6/4 600 м кучево-дожд., средняя 
[Cb calv|Ac und]
+19.7 +14.7 73 +29  1010.9  0.3  743  276    +25.2       
06 07.08.18 290 (З) 30000 м    8/6 600 м верхняя 
[Cu med, cong|Ci fib]
+16.8 +13.5 81 +24  1013.3  1.1  745  280  +14.6         
18 07.08.18 260 (З) 35000 м    ясно 
+18.6 +12 65 +24  1016.3  0.8  747  279    +23.1       
06 08.08.18 320 (СЗ) 35000 м    3/0 средняя 
[Ac cast]
+18.9 +14.2 74 +27  1020.4  1.1  750  280  +11.5         
18 08.08.18 130 (ЮВ) 35000 м    ясно 
+21.3 +12.5 57 +26  1020.7  0.2  750  278    +25.2       
06 09.08.18 160 (Ю) 30000 м    ясно 
+21.6 +14.8 65 +30  1024.6  0.9  753  278  +15.6         
18 09.08.18 170 (Ю) 35000 м    ясно 
+21.6 +15.4 68 +31  1024.7  0.2  753  278    +27.7       
06 10.08.18 160 (Ю) 35000 м    3/0 верхняя 
[Ci fib]
+21.3 +12.7 58 +26  1027.3  0.6  755  280  +15.4         
18 10.08.18 140 (ЮВ) 35000 м    3/0 верхняя 
[Ci fib]
+20.8 +12.9 61 +26  1023.2  -1.3  752  279    +26.7       
06 11.08.18 180 (Ю) 30000 м    ясно 
+20.7 +12.9 61 +26  1021.6  -0.4  751  279  +16.3         
18 11.08.18 150 (ЮВ) 35000 м    ясно 
+21.3 +13.8 62 +28  1016.8  -0.9  747  277    +28.7       
06 12.08.18 250 (З) 26000 м  в посл. час ливневой дождь  10/10 300 м 
[Frnb]
+16.4 +15.3 93 +27  1014.1  0.3  745  280  +15.7       
18 12.08.18 240 (ЮЗ) 1{10}  35000 м    1/0 верхняя 
[Ci fib]
+16.9 +8.1 56 +18  1014.1  0.5  745  281    +23.1       
06 13.08.18 210 (ЮЗ) 35000 м    9/0 средняя 
[Ac As]
+15.4 +9.6 68 +17  1013.7  0.1  745  282  +12.9         
18 13.08.18 210 (ЮЗ) 9000 м  слаб. ливневой дождь  10/10 540 м кучево-дожд. 
[Cb calv]
+15.1 +13.2 88 +22  1013.4  -0.5  745  282    +19.9     
06 14.08.18 090 (В) 22000 м    9/0 средняя 
[Ac und]
+16 +13.2 83 +23  1013.7  0.1  745  281  +12.6    0.7     
18 14.08.18 140 (ЮВ) 35000 м    10/0 верхняя 
[Ci fib]
+20.7 +15.6 73 +31  1011.4  743  275    +26.3       
06 15.08.18 260 (З) 19000 м  {гроза}  10/10 330 м 
[Frnb]
+18.7 +16.8 89 +32  1009.4  742  276  +17.2       
18 15.08.18 210 (ЮЗ) 9000 м  слаб. ливневой дождь  10/10 420 м кучево-дожд. 
[Cb calv]
+17.5 +15.9 90 +29  1013.5  1.2  745  279    +24.4     
06 16.08.18 270 (З) 8000 м  дымка  10/10 240 м 
[St]
+16.9 +16.1 95 +29  1016.9  1.6  747  280  +16.1    0.7     
18 16.08.18 тихо ()   25000 м    8/0 средняя, верхняя 
[Ac und|Ci fib]
+17.9 +15.9 88 +28  1020  1.1  750  280    +22.7  0.5     
06 17.08.18 070 (В) 35000 м    ясно 
+17.1 +14.5 85 +27  1022.5  0.4  751  282  +13.4         
Время (UTC), дата Ветер
(°,м/с) 
Видим.   Явления Облачность Т
(°С)
Тd
(°С)
f(%) Тe
(°С)
Pmin
(гПа)
dP
(гПа)
Po
(мм)
O2
(г/м3)
Тmin Tmax R s Состояние
почвы

Для получения пояснительной информации подведите курсор к названию столбца.

ПОГОДА Сенно - архив

Всё, что Вы хотите узнать о погоде Сенно - удобно и подробно!

Выберите нужную дату (начиная с 1 января 2015* года) и нажмите кнопку "Найти".
Будут отображены архивные сводки погоды по пункту Сенно, начиная с указанной даты.


Отображать данные в формате CSV (для использования в таблицах Excel)


Внимание! Наш архив погоды предназначен исключительно для личного некоммерческого использования в познавательных целях. Если Вам необходимы официальные справки о состоянии погоды (для производственных, юридических, коммерческих и т.п. целей), обращайтесь в органы Росгидромета.

*Примечание: данная дата относится к архиву по метеостанциям СССР (Россия, СНГ, Балтия).
Архив по метеостанциям Зарубежной Европы и Азии (кроме Китая) хранится 10 дней, по другим регионам земного шара (Китай, Африка, Америка, Австралия, Океания) - 1 день.

Сенно - район местоположения метеостанции


Название, широта, долгота, высота метеостанции:
Сенно 54.8°ш. 29.7°д. 176 м над ур. моря [Беларусь]

Дополнительная информация

В oтличие oт бoльшинства пoгoдных сайтoв мы публикуем пoдрoбную метеoинфoрмацию в детальнoм прoфессиoнальнoм фoрмате.

Характеристики температуры и влажнoсти вoздуха измеряются на высoте 2 м в тени вдали oт зданий и деревьев.
Скoрoсть ветра измеряется на высoте 10 м (на урoвне рoста челoвека скoрoсть ветра ниже в 1.5-2 раза). Если метеoстанция нахoдится в гoрoде или в лесу, тo скoрoсть ветра занижена на 2-4 м/с пo сравнению с oткрытым местoм. Скoрoсть ветра над акватoриями крупных рек и oзёр, а также на вершинах хoлмoв на 2-5 м/с выше, чем в oбычных услoвиях.
Атмoсфернoе давление в разных тoчках местнoсти мoжет значительнo oтличаться oт давления на метеoстанции, в зависимoсти oт услoвий рельефа (при пoдъёме на 10 м давление пoнижается примернo на 1 мм рт.ст.).